Date String (YYYY-MM-DD hh:mm:ss) UTC,Instrument flags,absolute air pressure of the measurement (hPa),sample flow rate (lpm),inlet stack bypass flow (lpm),air temperature of the measurement (°C),ambient temperature measured by the external sensor (°C),aerosol sample conditioner tube jacket temperature (°C),OPC LED temperature (°C),internal box temperature (°C),relative humidity of the measurement (%),span deviation,mass concentration of particles derived from Lorenz-Mie calculation of OPC scattering (μg/m³),mass concentration of particles derived from Lorenz-Mie calculation of OPC scattering (μg/m³),mass concentration of particles derived from Lorenz-Mie calculation of OPC scattering (μg/m³)
DateTimeUTC,F1_M11,P_M11,Q1_M11,Q2_M11,T1_M11,T2_M11,T3_M11,T4_M11,T5_M11,U1_M11,ZSPAN_M11,X0_M11,X2_M11,X1_M11
2023-06-06 22:00:00,SystemResetWarning,0830.4,4.99,000.00,029.3,025.4,000.0,037.8,030.6,32.7,0001.0,0013.56,0008.95,0008.34
2023-06-06 22:01:00,SystemResetWarning,0830.4,5.01,000.00,029.2,025.8,000.0,037.8,030.6,32.0,0001.0,0013.56,0008.90,0008.29
2023-06-06 22:02:00,SystemResetWarning,0830.4,5.01,000.00,029.2,026.3,000.0,037.8,030.6,32.4,0001.1,0013.42,0008.83,0008.24
2023-06-06 22:03:00,SystemResetWarning,0830.4,5.00,000.00,029.2,026.6,000.0,037.8,030.7,32.9,0000.7,0013.18,0008.78,0008.20
2023-06-06 22:04:00,SystemResetWarning,0830.4,4.99,000.00,029.2,027.0,000.0,037.8,030.7,32.7,0000.5,0013.21,0008.71,0008.15
2023-06-06 22:05:00,SystemResetWarning,0830.4,4.99,000.00,029.3,027.2,000.0,037.8,030.8,33.2,0000.7,0013.42,0008.69,0008.10
2023-06-06 22:06:00,SystemResetWarning,0830.4,5.00,000.00,029.3,027.5,000.0,037.8,030.8,32.2,0000.6,0013.21,0008.66,0008.09
2023-06-06 22:07:00,SystemResetWarning,0830.4,5.01,000.00,029.3,027.7,000.0,037.8,030.9,32.3,0000.9,0013.26,0008.58,0008.04
2023-06-06 22:08:00,SystemResetWarning,0830.3,5.01,000.00,029.3,027.8,000.0,037.9,030.9,32.8,0001.1,0013.63,0008.57,0008.02
2023-06-06 22:09:00,SystemResetWarning,0830.3,5.00,000.00,029.4,028.0,000.0,037.9,031.0,33.0,0000.9,0013.88,0008.58,0008.03
2023-06-06 22:10:00,SystemResetWarning,0830.3,4.99,000.00,029.4,028.1,000.0,037.9,031.0,33.7,0001.2,0014.53,0008.63,0008.06
2023-06-06 22:11:00,SystemResetWarning,0830.3,4.99,000.00,029.5,028.2,000.0,037.9,031.1,33.2,0001.4,0014.60,0008.59,0008.03
2023-06-06 22:12:00,SystemResetWarning,0830.3,5.01,000.00,029.5,028.3,000.0,037.9,031.1,31.7,0001.3,0015.19,0008.49,0007.95
2023-06-06 22:13:00,SystemResetWarning,0830.4,5.01,000.00,029.5,028.3,000.0,038.0,031.1,32.0,0000.9,0015.88,0008.42,0007.89
2023-06-06 22:14:00,SystemResetWarning,0830.4,5.00,000.00,029.6,027.9,000.0,038.0,031.2,31.8,0001.3,0015.79,0008.34,0007.82
2023-06-06 22:15:00,SystemResetWarning,0830.3,4.98,000.00,029.6,026.1,000.0,037.9,031.1,31.4,0001.6,0015.87,0008.30,0007.78
2023-06-06 22:16:00,SystemResetWarning,0830.3,5.00,000.00,029.5,025.4,000.0,037.9,031.1,31.2,0001.6,0015.49,0008.23,0007.75
2023-06-06 22:17:00,SystemResetWarning,0830.3,5.01,000.00,029.5,025.5,000.0,037.9,030.8,31.8,0001.8,0015.95,0008.16,0007.68
2023-06-06 22:18:00,SystemResetWarning,0830.3,5.01,000.00,029.4,025.9,000.0,037.9,030.7,32.2,0002.0,0015.81,0008.09,0007.60
2023-06-06 22:19:00,SystemResetWarning,0830.3,4.99,000.00,029.4,026.3,000.0,037.9,030.7,30.9,0002.0,0015.53,0007.96,0007.48
2023-06-06 22:20:00,SystemResetWarning,0830.4,5.00,000.00,029.4,026.6,000.0,037.9,030.8,27.1,0002.1,0015.19,0007.62,0007.14
2023-06-06 22:21:00,SystemResetWarning,0830.3,5.00,000.00,029.4,026.9,000.0,037.9,030.8,25.9,0002.0,0014.18,0007.09,0006.63
2023-06-06 22:22:00,SystemResetWarning,0830.3,5.01,000.00,029.4,027.2,000.0,037.9,030.9,25.5,0002.2,0013.85,0006.65,0006.17
2023-06-06 22:23:00,SystemResetWarning,0830.3,5.00,000.00,029.4,027.4,000.0,037.9,030.9,25.3,0002.3,0013.24,0006.23,0005.77
2023-06-06 22:24:00,SystemResetWarning,0830.3,5.00,000.00,029.4,027.6,000.0,037.9,030.9,25.7,0002.5,0012.06,0005.84,0005.36
2023-06-06 22:25:00,SystemResetWarning,0830.2,5.00,000.00,029.5,027.8,000.0,037.9,031.0,25.9,0002.4,0011.69,0005.45,0004.99
2023-06-06 22:26:00,SystemResetWarning,0830.2,5.00,000.00,029.5,028.0,000.0,038.0,031.1,25.4,0002.5,0010.88,0005.07,0004.61
2023-06-06 22:27:00,SystemResetWarning,0830.2,5.00,000.00,029.5,028.1,000.0,038.0,031.1,25.3,0002.8,0010.37,0004.63,0004.18
2023-06-06 22:28:00,SystemResetWarning,0830.2,5.00,000.00,029.6,028.1,000.0,038.0,031.1,25.9,0000.0,0009.69,0004.21,0003.76
2023-06-06 22:29:00,SystemResetWarning,0830.1,5.00,000.00,029.6,026.6,000.0,037.9,031.2,26.7,0000.0,0008.75,0003.81,0003.37
2023-06-06 22:30:00,SystemResetWarning,0830.1,5.00,000.00,029.6,025.4,000.0,037.9,031.1,25.7,0000.0,0008.00,0003.45,0002.94
2023-06-06 22:31:00,SystemResetWarning,0830.1,5.00,000.00,029.5,025.4,000.0,037.9,030.9,25.4,0000.0,0007.70,0003.27,0002.64
2023-06-06 22:32:00,SystemResetWarning,0830.1,5.01,000.00,029.4,025.7,000.0,037.9,030.7,24.6,0000.0,0007.42,0003.21,0002.57
2023-06-06 22:33:00,SystemResetWarning,0830.1,5.01,000.00,029.4,026.1,000.0,037.9,030.7,24.0,0000.0,0006.95,0003.19,0002.56
2023-06-06 22:34:00,SystemResetWarning,0830.1,5.00,000.00,029.4,026.4,000.0,037.9,030.7,24.6,0000.0,0006.84,0003.20,0002.57
2023-06-06 22:35:00,SystemResetWarning,0830.0,5.00,000.00,029.4,026.8,000.0,037.9,030.7,24.7,0000.0,0006.20,0003.19,0002.57
2023-06-06 22:36:00,SystemResetWarning,0830.0,5.00,000.00,029.4,027.1,000.0,037.9,030.8,24.9,0000.0,0006.12,0003.20,0002.59
2023-06-06 22:37:00,SystemResetWarning,0830.0,4.99,000.00,029.4,027.3,000.0,037.9,030.8,25.5,0000.0,0006.00,0003.19,0002.61
2023-06-06 22:38:00,SystemResetWarning,0830.0,5.01,000.00,029.4,027.5,000.0,037.9,030.9,24.5,0000.0,0006.06,0003.20,0002.63
2023-06-06 22:39:00,SystemResetWarning,0830.0,5.00,000.00,029.4,027.7,000.0,037.9,031.0,24.1,0000.0,0005.73,0003.20,0002.65
2023-06-06 22:40:00,SystemResetWarning,0830.0,5.00,000.00,029.4,027.9,000.0,037.9,031.0,24.3,0000.0,0005.82,0003.20,0002.64
2023-06-06 22:41:00,SystemResetWarning,0830.0,4.99,000.00,029.5,028.0,000.0,038.0,031.0,24.0,0000.0,0006.14,0003.18,0002.63
2023-06-06 22:42:00,SystemResetWarning,0830.0,4.99,000.00,029.5,028.1,000.0,038.0,031.1,24.2,0000.0,0006.35,0003.17,0002.62
2023-06-06 22:43:00,SystemResetWarning,0830.0,5.00,000.00,029.5,028.2,000.0,038.0,031.1,24.6,0000.0,0006.38,0003.18,0002.63
2023-06-06 22:44:00,SystemResetWarning,0829.9,5.00,000.00,029.6,027.5,000.0,038.0,031.2,24.3,0000.0,0006.13,0003.17,0002.61
2023-06-06 22:45:00,SystemResetWarning,0829.9,5.01,000.00,029.6,025.7,000.0,037.9,031.1,23.6,0000.0,0005.91,0003.15,0002.58
2023-06-06 22:46:00,SystemResetWarning,0829.8,5.00,000.00,029.5,025.3,000.0,037.9,031.0,23.7,0000.0,0006.09,0003.15,0002.57
2023-06-06 22:47:00,SystemResetWarning,0829.8,5.01,000.00,029.4,025.5,000.0,037.9,030.7,24.0,0000.0,0006.05,0003.12,0002.55
2023-06-06 22:48:00,SystemResetWarning,0829.8,5.00,000.00,029.4,025.9,000.0,037.9,030.7,24.4,0000.0,0006.32,0003.13,0002.53
2023-06-06 22:49:00,SystemResetWarning,0829.8,5.00,000.00,029.4,026.3,000.0,037.9,030.7,24.7,0000.0,0006.26,0003.12,0002.51
2023-06-06 22:50:00,SystemResetWarning,0829.8,5.00,000.00,029.4,026.6,000.0,037.9,030.7,24.5,0000.0,0006.10,0003.09,0002.48
2023-06-06 22:51:00,SystemResetWarning,0829.8,5.00,000.00,029.4,027.0,000.0,037.9,030.8,25.0,0000.0,0005.97,0003.07,0002.47
2023-06-06 22:52:00,SystemResetWarning,0829.8,4.99,000.00,029.4,027.2,000.0,037.9,030.9,25.1,0000.0,0005.96,0003.08,0002.45
2023-06-06 22:53:00,SystemResetWarning,0829.7,5.00,000.00,029.4,027.5,000.0,037.9,030.9,24.0,0000.0,0006.31,0003.08,0002.43
2023-06-06 22:54:00,SystemResetWarning,0829.7,5.00,000.00,029.4,027.7,000.0,037.9,030.9,24.6,0000.0,0006.72,0003.07,0002.42
2023-06-06 22:55:00,SystemResetWarning,0829.7,5.00,000.00,029.4,027.8,000.0,037.9,031.0,24.0,0000.0,0006.73,0003.07,0002.43
2023-06-06 22:56:00,SystemResetWarning,0829.7,5.01,000.00,029.5,028.0,000.0,038.0,031.0,24.4,0000.0,0006.34,0003.04,0002.43
2023-06-06 22:57:00,SystemResetWarning,0829.7,5.00,000.00,029.5,028.1,000.0,038.0,031.1,23.5,0000.0,0005.99,0003.00,0002.42
2023-06-06 22:58:00,SystemResetWarning,0829.7,5.00,000.00,029.6,028.2,000.0,038.0,031.1,24.8,0000.0,0006.11,0002.98,0002.41
2023-06-06 22:59:00,SystemResetWarning,0829.7,5.00,000.00,029.6,028.3,000.0,038.0,031.2,25.1,0000.0,0007.28,0002.97,0002.41
